CST,Max TemperatureF,Mean TemperatureF,Min TemperatureF,Max Dew PointF,MeanDew PointF,Min DewpointF,Max Humidity, Mean Humidity, Min Humidity, Max Sea Level PressureIn, Mean Sea Level PressureIn, Min Sea Level PressureIn, Max VisibilityMiles, Mean VisibilityMiles, Min VisibilityMiles, Max Wind SpeedMPH, Mean Wind SpeedMPH, Max Gust SpeedMPH,PrecipitationIn, CloudCover, Events, WindDirDegrees
2013-2-1,5,-8,-22,-18,-22,-31,70,51,30,30.11,30.06,30.02,10,10,10,8,2,,0.00,2,,287
2013-2-2,12,-4,-20,-6,-16,-29,69,52,29,30.08,30.00,29.86,10,10,7,9,1,,0.00,3,Snow,218
2013-2-3,12,2,-9,-4,-13,-18,71,51,29,29.95,29.89,29.82,10,10,5,10,4,20,0.00,1,Snow,304
2013-2-4,15,-7,-29,0,-18,-38,72,47,21,29.96,29.87,29.68,10,9,1,6,1,,0.00,3,Snow,252
2013-2-5,21,10,0,3,-3,-13,79,55,30,30.02,29.77,29.57,10,8,0,10,2,17,0.08,4,Snow,333
2013-2-6,19,10,0,16,4,-9,93,69,53,30.08,30.04,30.02,10,6,1,13,2,18,0.00,7,Snow,76
2013-2-7,21,16,12,16,14,9,93,83,73,30.28,30.18,30.09,10,6,2,13,9,22,0.00,6,Snow,54
2013-2-8,26,14,3,10,6,-2,86,73,43,30.36,30.30,30.22,10,9,5,6,1,,0.00,5,Snow,126
2013-2-9,24,15,6,21,15,1,92,78,63,30.22,30.04,29.95,10,6,2,13,3,17,0.00,5,Snow,208
2013-2-10,32,28,24,27,23,19,93,86,74,29.96,29.66,29.31,10,4,0,26,8,36,0.10,7,Snow,74
2013-2-11,28,20,12,25,14,5,86,71,54,29.93,29.59,29.32,10,9,1,15,7,22,0.02,4,Snow,336
2013-2-12,28,17,6,18,11,3,86,75,59,29.90,29.76,29.62,10,9,2,10,3,,0.00,3,Snow,234
2013-2-13,39,26,14,21,17,10,93,74,45,29.63,29.60,29.57,10,10,10,8,3,,0.00,1,Snow,299
2013-2-14,24,17,8,18,6,-2,86,60,33,30.04,29.83,29.64,10,10,7,12,3,18,0.00,3,Rain,344
2013-2-15,17,4,-9,-2,-8,-17,78,56,30,30.17,30.12,30.04,10,10,10,9,2,18,0.00,1,,331
2013-2-16,24,0,-25,-2,-17,-35,77,57,22,30.14,30.11,30.07,10,10,7,8,1,,0.00,0,,175
2013-2-17,24,1,-22,10,-6,-31,71,61,49,30.07,29.89,29.67,10,10,5,16,3,22,0.00,3,Snow,140
2013-2-18,30,20,8,19,13,-2,80,67,57,29.67,29.54,29.46,10,9,2,14,4,29,0.00,3,Snow,358
2013-2-19,10,2,-5,-2,-12,-17,66,54,37,30.22,29.91,29.62,10,10,5,20,12,31,0.00,4,,340
2013-2-20,26,8,-9,-6,-15,-29,71,46,10,30.43,30.38,30.23,10,10,10,13,4,20,0.00,0,,1
2013-2-21,21,4,-14,18,2,-24,93,75,48,30.47,30.37,30.17,10,8,2,12,4,20,0.00,4,Snow,63
2013-2-22,26,24,21,21,20,18,93,82,74,30.17,29.94,29.79,10,5,0,22,12,30,0.03,6,Snow,65
2013-2-23,37,26,15,23,19,10,86,73,48,29.86,29.78,29.74,10,10,5,7,2,,0.01,3,Snow,23
2013-2-24,39,26,12,23,18,9,93,77,48,30.02,29.97,29.87,10,10,10,10,1,,0.00,1,,180
2013-2-25,37,21,5,21,10,0,86,69,44,30.05,30.02,29.98,10,10,7,12,2,,0.00,0,,201
2013-2-26,37,18,0,23,13,-6,93,71,48,30.06,30.01,29.95,10,10,7,10,2,,0.00,0,,57
2013-2-27,37,24,12,19,15,7,93,68,41,30.04,29.95,29.91,10,10,10,10,4,21,0.00,1,,26
2013-2-28,32,24,15,16,11,0,74,58,44,30.28,30.17,30.05,10,10,10,14,8,20,0.00,1,,50